GLOBALSTAR M032 [-]

Last updated on July 6, 2021, 3:36 p.m. UTC

1 25852U 99037B   21186.83295450 -.00000068  00000-0 -56568-4 0  9994
2 25852  51.9973 316.1934 0003845 259.0374 100.9994 11.19044670973302
UTC
Height (km)
Latitude
Longitude
Inclination
Orbital Period
UTC large
Height (km)
Speed (km/s)
/
Latitude / Longitude
Inclination (degrees)
Orbital Period (minutes)
Azimuth
Elevation
Range (km)
Doppler Factor
iOS Compass Heading
iOS Angle